Weather History for 94368 - January, 2014

Change the Weather History Date:

Saturday, January 4, 2014

  Actual Average Record
Temperature  
Mean Temperature 82 °F -  
Max Temperature 87 °F - - ()
Min Temperature 78 °F - - ()
Cooling Degree Days 18    
Growing Degree Days 32 (Base 50)    
Moisture  
Dew Point 74 °F    
Average Humidity 76    
Maximum Humidity 89    
Minimum Humidity 63    
Precipitation  
Precipitation 0.00 in - - ()
Sea Level Pressure  
Sea Level Pressure 29.69 in    
Wind  
Wind Speed 15 mph ()    
Max Wind Speed 26 mph    
Max Gust Speed 30 mph    
Visibility 6.2 miles    
Events      
T = Trace of Precipitation, MM = Missing Value Source: Averaged Metar Reports

Daily Weather History Graph

Daily Weather History Graph

Search for Another Location

Airport or City:

Trip Planner

Search our weather history database for the weather conditions in past years. The results will help you decide how hot, cold, wet, or windy it might be!

Date:

Astronomy

Jan. 04, 2014 Rise Set
Actual Time 5:29 AM AEST 6:48 PM AEST
Civil Twilight 5:04 AM AEST 7:13 PM AEST
Nautical Twilight 4:35 AM AEST 7:42 PM AEST
Astronomical Twilight 4:05 AM AEST 8:12 PM AEST
Moon 8:11 AM AEST (1/4) 9:07 PM AEST (1/4)
Length of Visible Light 14h 08m
Length of Day
13h 19m
Waxing Crescent, 10% of the Moon is Illuminated
Jan 4
Waxing Crescent
Jan 8
First Quarter
Jan 16
Full
Jan 24
Last Quarter
Jan 31
New

Hourly Weather History & Observations

Time (AEST) Temp. Heat Index Dew Point Humidity Pressure Visibility Wind Dir Wind Speed Gust Speed Precip Events Conditions
12:00 AM 79 °F - 73 °F 77% 29.75 in - North 9.2 mph - -  
12:00 AM 78.8 °F - 73.4 °F 83% 29.74 in 6.2 mi North 9.2 mph - N/A   Unknown
12:30 AM 78.8 °F - 73.4 °F 83% 29.74 in 6.2 mi North 11.5 mph - N/A   Unknown
1:00 AM 78.8 °F - 73.4 °F 83% 29.74 in 6.2 mi North 10.4 mph - N/A   Unknown
1:30 AM 78.8 °F - 73.4 °F 83% 29.74 in 6.2 mi North 10.4 mph - N/A   Unknown
2:00 AM 78.8 °F - 71.6 °F 78% 29.71 in 6.2 mi North 11.5 mph - N/A   Unknown
2:30 AM 78.8 °F - 73.4 °F 83% 29.71 in 6.2 mi North 13.8 mph - N/A   Unknown
3:00 AM 79 °F - 72 °F 73% 29.71 in - North 12.7 mph - -  
3:00 AM 78.8 °F - 71.6 °F 78% 29.71 in 6.2 mi North 12.7 mph - N/A   Unknown
3:30 AM 78.8 °F - 71.6 °F 78% 29.71 in 6.2 mi NNW 15.0 mph - N/A   Unknown
4:00 AM 78.8 °F - 71.6 °F 78% 29.71 in 6.2 mi NNW 15.0 mph - N/A   Unknown
4:30 AM 78.8 °F - 71.6 °F 78% 29.71 in 6.2 mi NNW 16.1 mph - N/A   Unknown
5:00 AM 78.8 °F - 71.6 °F 78% 29.71 in 6.2 mi NNW 17.3 mph - N/A   Unknown
5:30 AM 78.8 °F - 71.6 °F 78% 29.74 in 6.2 mi NNW 18.4 mph - N/A   Unknown
5:41 AM 80.6 °F 84.6 °F 71.6 °F 74% 29.74 in 6.2 mi NNW 18.4 mph 29.9 mph N/A   Unknown
6:00 AM 80 °F - 72 °F 70% 29.75 in - NNW 18.4 mph - -  
6:00 AM 80.6 °F 84.6 °F 71.6 °F 74% 29.74 in 6.2 mi NNW 18.4 mph - N/A   Unknown
6:30 AM 80.6 °F 84.6 °F 71.6 °F 74% 29.74 in 6.2 mi NNW 17.3 mph - N/A   Unknown
7:00 AM 80.6 °F 84.6 °F 71.6 °F 74% 29.74 in 6.2 mi NW 23.0 mph - N/A   Unknown
7:30 AM 80.6 °F 85.4 °F 73.4 °F 79% 29.74 in 6.2 mi NW 23.0 mph - N/A   Unknown
8:00 AM 82.4 °F 87.2 °F 71.6 °F 70% 29.74 in 6.2 mi NW 23.0 mph - N/A   Unknown
8:30 AM 80.6 °F 84.6 °F 71.6 °F 74% 29.74 in 6.2 mi NW 21.9 mph - N/A   Unknown
9:00 AM 82 °F - 73 °F 68% 29.74 in - NW 24.2 mph - -  
9:00 AM 82.4 °F 88.2 °F 73.4 °F 74% 29.74 in 6.2 mi NW 24.2 mph - N/A   Unknown
9:30 AM 82.4 °F 88.2 °F 73.4 °F 74% 29.74 in 6.2 mi NW 23.0 mph - N/A   Unknown
10:00 AM 82.4 °F 88.2 °F 73.4 °F 74% 29.74 in 6.2 mi NW 23.0 mph - N/A   Unknown
10:30 AM 82.4 °F 87.2 °F 71.6 °F 70% 29.74 in 6.2 mi NW 24.2 mph - N/A   Unknown
11:00 AM 84.2 °F 90.9 °F 73.4 °F 70% 29.74 in 6.2 mi NW 25.3 mph - N/A   Unknown
11:30 AM 84.2 °F 90.9 °F 73.4 °F 70% 29.71 in 6.2 mi NW 24.2 mph - N/A   Unknown
12:00 PM 84 °F - 74 °F 64% 29.71 in - NW 26.5 mph - -  
12:00 PM 84.2 °F 90.9 °F 73.4 °F 70% 29.71 in 6.2 mi NW 26.5 mph - N/A   Unknown
12:30 PM 84.2 °F 92.3 °F 75.2 °F 74% 29.68 in 6.2 mi NNW 23.0 mph - N/A   Unknown
1:00 PM 86.0 °F 95.1 °F 75.2 °F 70% 29.68 in 6.2 mi NNW 23.0 mph - N/A   Unknown
1:30 PM 86.0 °F 93.4 °F 73.4 °F 66% 29.65 in 6.2 mi NNW 19.6 mph - N/A   Unknown
2:00 PM 87.8 °F 97.6 °F 75.2 °F 66% 29.65 in 6.2 mi NNW 17.3 mph - N/A   Unknown
2:30 PM 87.8 °F 97.6 °F 75.2 °F 66% 29.62 in 6.2 mi NNW 17.3 mph - N/A   Unknown
3:00 PM 87 °F - 76 °F 63% 29.62 in - NW 17.3 mph - -  
3:00 PM 86.0 °F 96.9 °F 77.0 °F 74% 29.62 in 6.2 mi NW 17.3 mph - N/A   Unknown
3:30 PM 86.0 °F 95.1 °F 75.2 °F 70% 29.62 in 6.2 mi NW 15.0 mph - N/A   Unknown
4:00 PM 86.0 °F 95.1 °F 75.2 °F 70% 29.62 in 6.2 mi NW 18.4 mph - N/A   Unknown
4:30 PM 86.0 °F 95.1 °F 75.2 °F 70% 29.59 in 6.2 mi NW 15.0 mph - N/A   Unknown
5:00 PM 84.2 °F 92.3 °F 75.2 °F 74% 29.59 in 6.2 mi NW 19.6 mph - N/A   Unknown
5:30 PM 84.2 °F 94.1 °F 77.0 °F 79% 29.59 in 6.2 mi NW 23.0 mph - N/A   Unknown
6:00 PM 83 °F - 76 °F 74% 29.62 in - NW 18.4 mph - -  
6:00 PM 82.4 °F 90.9 °F 77.0 °F 84% 29.62 in 6.2 mi NW 18.4 mph - N/A   Unknown
6:30 PM 82.4 °F 89.5 °F 75.2 °F 79% 29.62 in 6.2 mi NW 19.6 mph - N/A   Unknown
7:00 PM 82.4 °F 90.9 °F 77.0 °F 84% 29.62 in 6.2 mi NNW 17.3 mph - N/A   Unknown
7:30 PM 80.6 °F 87.1 °F 77.0 °F 89% 29.65 in 6.2 mi NNW 13.8 mph - N/A   Unknown
8:00 PM 80.6 °F 86.2 °F 75.2 °F 84% 29.68 in 6.2 mi NNW 16.1 mph - N/A   Unknown
8:30 PM 80.6 °F 86.2 °F 75.2 °F 84% 29.68 in 6.2 mi NNW 17.3 mph - N/A   Unknown
9:00 PM 81 °F - 75 °F 77% 29.68 in - North 12.7 mph - -  
9:00 PM 80.6 °F 86.2 °F 75.2 °F 84% 29.68 in 6.2 mi North 12.7 mph - N/A   Unknown
9:30 PM 80.6 °F 86.2 °F 75.2 °F 84% 29.71 in 6.2 mi NNW 11.5 mph - N/A   Unknown
10:00 PM 80.6 °F 86.2 °F 75.2 °F 84% 29.71 in 6.2 mi NNW 11.5 mph - N/A   Unknown
10:30 PM 80.6 °F 86.2 °F 75.2 °F 84% 29.71 in 6.2 mi North 13.8 mph - N/A   Unknown
11:00 PM 80.6 °F 86.2 °F 75.2 °F 84% 29.68 in 6.2 mi North 15.0 mph - N/A   Unknown
11:30 PM 80.6 °F 86.2 °F 75.2 °F 84% 29.68 in 6.2 mi NNW 16.1 mph - N/A   Unknown